Location: Avully
(45.9633°N, 6.0228°E)
Time: 20:02:58
(UTC+00:00)

Cosmos 2360 Rocket - Pass Details

Date: 11 August 2024
Orbit: 834 x 843 km, 71.0° (Epoch: 10 September)

Event Time Altitude Azimuth Distance (km) Brightness Sun altitude
Exits shadow 00:55:24 54° 276° (W) 1,023 2.4 -26.6°
Maximum altitude 00:56:00 56° 301° (WNW) 994 2.5 -26.6°
Drops below altitude 10° 01:01:35 10° 20° (NNE) 2,469 5.6 -26.2°
Sets 01:04:05 0° 24° (NNE) 3,406 6.7 -26.1°
